Location: Pettit
(39.0209°N, 79.7181°W)
Time: 04:34:43
(UTC+00:00)

ARIANE 6 FM1 Upper Stage - Visible Passes

Search period start: 15 April 2026 00:00
Search period end: 25 April 2026 00:00
Orbit: 524 x 604 km, 62.0° (Epoch: 14 April)

Date Brightness Start Highest point End Pass type
(mag) Time Alt. Az. Time Alt. Az. Time Alt. Az.
15 Apr 5.5 00:40:44 10° W 00:43:47 20° NW 00:46:49 10° N visible
16 Apr 5.6 00:41:14 10° WNW 00:43:34 15° NW 00:45:54 10° N visible
17 Apr 5.9 00:42:18 10° NW 00:43:24 11° NW 00:44:31 10° NNW visible
24 Apr 5.8 04:03:08 10° N 04:03:19 11° N 04:03:19 11° N visible
